Regional Weather Roundup
Issued by NWS

Home | Current Version | Previous Version | Graphics & Text | Print | Product List | Glossary On
Versions: 1 2 3 4 5 6 7 8 9 10 11 12 13 14 15 16 17 18 19 20 21 22 23 24 25 26 27 28 29 30 31 32 33 34 35 36 37 38 39 40 41 42 43 44 45 46 47 48 49 50
000
ASUS43 KLOT 040712
RWRIL

ILLINOIS REGIONAL WEATHER ROUNDUP
NATIONAL WEATHER SERVICE CHICAGO/ROMEOVILLE IL
200 AM CDT TUE AUG 04 2015

NOTE: "FAIR" INDICATES FEW OR NO CLOUDS BELOW 12,000 FEET WITH NO
SIGNIFICANT WEATHER AND/OR OBSTRUCTIONS TO VISIBILITY.

* THESE STATIONS ARE NOT UNDER NWS QUALITY CONTROL. THEY ALSO MAY NOT
  REPORT WEATHER SUCH AS PRECIPITATION OR FOG.

ILZ001-002-007-009-015-016-024-040800-
NORTHWEST ILLINOIS

CITY           SKY/WX    TMP DP  RH WIND       PRES   REMARKS
MOLINE         CLEAR     61  56  83 S3        29.95S
STERLING*      CLEAR     61  55  82 W3        29.91F
SAVANNA*       CLEAR     59  57  92 CALM      29.94S
$$

ILZ003-004-008-010-011-017-018-040800-
NORTH CENTRAL ILLINOIS

CITY           SKY/WX    TMP DP  RH WIND       PRES   REMARKS
ROCKFORD       CLEAR     61  55  81 CALM      29.94F
FREEPORT*      CLEAR     56  53  89 SW5       29.95F
ROCHELLE*      CLEAR     55  54  95 CALM      29.94F
DE KALB*       CLEAR     61  55  81 NW5       29.94F
PERU*          CLEAR     61  55  79 W6        29.95S
$$

ILZ005-006-012>014-019>023-040800-
NORTHEAST ILLINOIS

CITY           SKY/WX    TMP DP  RH WIND       PRES   REMARKS
CHICAGO-OHARE  CLEAR     65  56  72 W6        29.91S
CHICAGO-MIDWAY CLEAR     69  55  60 W6        29.91S
AURORA         CLEAR     57  53  86 CALM      29.93F
LANSING*       CLEAR     63  55  75 W3        29.92S
JOLIET*        CLEAR     60  57  88 CALM      29.93S
WAUKEGAN       CLEAR     61  55  81 W3        29.91S
DUPAGE AIRPORT CLEAR     63  55  75 CALM      29.92S
KANKAKEE*      CLEAR     60  57  88 CALM      29.94S
WHEELING       CLEAR     65  54  67 CALM      29.92F
MORRIS*        CLEAR     60  56  86 W5        29.93S
ROMEOVILLE*    CLEAR     61  55  81 W6        29.92F
NORTHERLY ISL    N/A     72  55  55 W7          N/A
$$

LMZ740>746-040800-
SOUTHERN LAKE MICHIGAN

STATION/POSITION SKY/WX   TEMP    WIND        PRES    VSBY  WAVE
                          AIR SEA DIR/SP/G                  HT/PER
                          (F)     (DEG/KT/KT) (MB)    (MI)  (FT/S)
HARRISON CRIB              73     290/ 12/ 14   N/A
BURNHAM HARBOR             71     270/  7/  9   N/A
CALUMET HARBOR             70     250/  3/  4   N/A
BURNS HARBOR               69     210/  6/  8 1013.2S
MICHIGAN CITY              68     180/ 10/ 11   N/A
MICHIGAN CITY 6N           73 74  280/ 10/ 12   N/A           2/ 4
ST. JOSEPH                 73 73  300/ 10/ 12   N/A           1/ 2
$$

ILZ025>027-034>036-040-047-049-050-058-095>099-040800-
WEST-CENTRAL ILLINOIS

CITY           SKY/WX    TMP DP  RH WIND       PRES   REMARKS
QUINCY         MOCLDY    67  61  81 NE6       29.96S
GALESBURG*     CLEAR     58  57  97 CALM      29.96S
MACOMB*        PTCLDY    60  59  96 CALM      29.98F
JACKSONVILLE*  PTCLDY    68  64  87 CALM      29.95S
PITTSFIELD*    PTCLDY    71  65  81 CALM      29.96S
$$

ILZ028>032-037-038-041>044-048-051>054-059>061-040800-
CENTRAL ILLINOIS

CITY           SKY/WX    TMP DP  RH WIND       PRES   REMARKS
PONTIAC        CLEAR     62  59  88 W3        29.95S
BLOOMINGTON    CLEAR     67  58  72 W3        29.96F
DECATUR        CLEAR     64  60  87 S3        29.94F
PEORIA         CLEAR     67  58  72 CALM      29.95F
LACON*         CLEAR     60  58  92 CALM      29.94S
LINCOLN*       CLEAR     64  60  88 CALM      29.95S
SPRINGFIELD    PTCLDY    66  60  81 CALM      29.95S
TAYLORVILLE    MOCLDY    64  63  94 CALM      29.95S
$$

ILZ033-039-045-046-055>057-062-063-040800-
EAST-CENTRAL ILLINOIS

CITY           SKY/WX    TMP DP  RH WIND       PRES   REMARKS
CHAMPAIGN      CLEAR     62  59  90 N5        29.94F
DANVILLE*      CLEAR     58  57  98 CALM      29.92F
RANTOUL*       CLEAR     62  60  92 NW3       29.94F
MATTOON        CLEAR     66  59  78 N3        29.94S
PARIS*         CLEAR     60  59  97 CALM      29.96S
$$

ILZ079-100>102-040800-
SOUTHWEST ILLINOIS

CITY           SKY/WX    TMP DP  RH WIND       PRES   REMARKS
ALTON          MOCLDY    70  68  93 CALM      29.95S
BELLEVILLE     PTCLDY    74  73  93 CALM      29.93S
CAHOKIA*       PTCLDY    76  68  76 CALM      29.93F
SPARTA*        PTCLDY    75  71  87 CALM      29.94S
$$

ILZ064>066-069>071-074>076-080>082-084>086-088>090-092>094-040800-
SOUTH-CENTRAL ILLINOIS

CITY           SKY/WX    TMP DP  RH WIND       PRES   REMARKS
CARBONDALE     CLEAR     74  73  97 CALM      29.93S FOG
CAIRO*         PTCLDY    73  73  99 CALM      29.92S
EFFINGHAM*     MOCLDY    73  60  65 CALM      29.96S
MARION         PTCLDY    75  73  94 CALM      29.94S
MT. VERNON     PTCLDY    70  64  83 CALM      29.94F
CENTRALIA*     PTCLDY    70  67  90 CALM      29.94S
SALEM*         PTCLDY    71  68  90 CALM      29.94S
METROPOLIS*    CLEAR     74  74 100 S3        29.93F FOG
$$

ILZ067-068-072-073-078-083-087-091-040800-
SOUTHEAST ILLINOIS

CITY           SKY/WX    TMP DP  RH WIND       PRES   REMARKS
LAWRENCEVILLE  PTCLDY    72  65  78 MISG      29.94S
FLORA*         CLEAR     70  67  88 N3        29.94S
FAIRFIELD*     CLEAR     72  68  89 CALM      29.92S
HARRISBURG*    CLEAR     73  73  99 CALM      29.94S
ROBINSON*      MOCLDY    69  66  89 NE3       29.95S
CARMI*         CLEAR     70  66  86 CALM      29.92F FOG
$$

ABBREVIATIONS USED IN REMARKS
   TC - TEMPERATURE IN CELSIUS
  WCI - WIND CHILL INDEX
   HX - HEAT INDEX
  VSB - VISIBILITY
$$




USA.gov is the U.S. government's official web portal to all federal, state and local government web resources and services.